Terug naar catalogus

SL-12 R/B

AUX MOTOR

ActiefHEO
NORAD 20630·ROCKET BODY·🇷🇺 Russia

Gelanceerd May 19, 1990 vanaf Baikonur Cosmodrome

Loading…

Volgende Passages (komende 24 uur)

TLE

VersSource: Space-Track

Epoch: Sep 14, 2026, 11:22 UTC

1 20630U 90045F   26257.47407226  .00000197  00000-0  40433-3 0  9997
2 20630  65.0802 206.5400 5674076  38.1539 350.8152  4.32104266569872

Volg SL-12 R/B in realtime met AllMySat

Download on the App Store